Latest Weather Observations for Mount William

IDV60801

Issued at 11:05 am EST Friday 25 July 2014 (issued every 30 minutes, with the page automatically refreshed every 10 minutes)

About weather observations | Map of weather stations | Latest weather observations for VIC | Other Formats
Station Details ID: 079103 Name: MOUNT WILLIAM Lat: -37.30 Lon: 142.60 Height: 1150.0 m
Data from the previous 72 hours. | See also: Recent months at Mount William
Date/Time
EST
Temp
°C
App
Temp
°C
Dew
Point
Rel
Hum
%
Delta-T
°C
Wind Press
QNH
hPa
Press
MSL
hPa
Rain
since 9 am
mm
Dir
 
Spd
km/h
Gust
km/h
Spd
kts
Gust
kts
25/11:00am 4.9 -2.0 4.8 99 0.0 W 30 39 16 21 - - 1.8
25/10:48am 4.9 -2.0 4.8 99 0.0 W 30 48 16 26 - - 1.8
25/10:30am 4.9 -2.0 4.8 99 0.0 W 30 44 16 24 - - 1.8
25/10:00am 4.8 -2.1 4.7 99 0.0 WNW 30 44 16 24 - - 1.6
25/09:30am 4.8 -2.5 4.7 99 0.0 WNW 32 50 17 27 - - 0.8
25/09:28am 4.8 -2.5 4.7 99 0.0 WNW 32 50 17 27 - - 0.8
25/09:00am 4.7 -1.1 4.6 99 0.0 WNW 24 35 13 19 - - 30.6
25/08:30am 4.7 -2.6 4.6 99 0.0 WNW 32 43 17 23 - - 30.2
25/08:00am 4.7 -1.1 4.6 99 0.0 NW 24 33 13 18 - - 29.6
25/07:30am 4.6 -1.9 4.5 99 0.0 NW 28 37 15 20 - - 29.2
25/07:00am 4.5 -1.7 4.4 99 0.0 NW 26 37 14 20 - - 29.0
25/06:30am 4.5 -1.3 4.4 99 0.0 WNW 24 37 13 20 - - 28.8
25/06:00am 4.6 -1.2 4.5 99 0.0 NW 24 37 13 20 - - 28.8
25/05:30am 4.6 -1.6 4.5 99 0.0 WNW 26 43 14 23 - - 28.4
25/05:00am 4.8 -1.3 4.7 99 0.0 WNW 26 43 14 23 - - 28.2
25/04:30am 4.9 -1.2 4.8 99 0.0 NW 26 41 14 22 - - 28.0
25/04:00am 5.0 -0.7 4.9 99 0.0 NW 24 37 13 20 - - 27.4
25/03:30am 5.0 -1.1 4.9 99 0.0 NW 26 37 14 20 - - 27.2
25/03:06am 5.0 -2.2 4.9 99 0.0 WNW 32 50 17 27 - - 27.0
25/03:00am 5.0 -2.4 4.9 99 0.0 WNW 33 50 18 27 - - 27.0
25/02:57am 4.9 -2.3 4.8 99 0.0 WNW 32 50 17 27 - - 27.0
25/02:30am 4.9 -1.6 4.8 99 0.0 WNW 28 44 15 24 - - 27.0
25/02:00am 4.7 -1.8 4.6 99 0.0 WNW 28 43 15 23 - - 26.8
25/01:30am 5.0 -1.1 4.9 99 0.0 NW 26 35 14 19 - - 26.6
25/01:00am 5.1 -0.6 5.0 99 0.0 NW 24 33 13 18 - - 26.0
25/12:30am 5.0 -2.2 4.9 99 0.0 NNW 32 44 17 24 - - 24.4
25/12:01am 4.8 -3.0 4.7 99 0.0 N 35 54 19 29 - - 22.0
25/12:00am 4.8 -3.4 4.7 99 0.0 N 37 54 20 29 - - 22.0
 
Date/Time
EST
Temp
°C
App
Temp
°C
Dew
Point
Rel
Hum
%
Delta-T
°C
Wind Press
QNH
hPa
Press
MSL
hPa
Rain
since 9 am
mm
Dir
 
Spd
km/h
Gust
km/h
Spd
kts
Gust
kts
24/11:30pm 5.1 -1.3 5.0 99 0.0 N 28 50 15 27 - - 21.8
24/11:00pm 5.0 -1.8 4.9 99 0.0 NNW 30 48 16 26 - - 21.6
24/10:56pm 5.0 -1.8 4.9 99 0.0 NNW 30 48 16 26 - - 21.6
24/10:30pm 4.9 -0.8 4.8 99 0.0 NW 24 39 13 21 - - 21.4
24/10:03pm 4.9 -4.1 4.8 99 0.0 NNW 41 61 22 33 - - 21.4
24/10:00pm 4.9 -0.8 4.8 99 0.0 N 24 48 13 26 - - 21.4
24/09:30pm 4.9 -0.1 4.8 99 0.0 N 20 35 11 19 - - 20.4
24/09:00pm 5.0 -1.1 4.9 99 0.0 N 26 44 14 24 - - 20.2
24/08:44pm 5.0 -1.8 4.9 99 0.0 N 30 50 16 27 - - 20.0
24/08:30pm 5.0 -1.5 4.9 99 0.0 N 28 44 15 24 - - 19.4
24/08:01pm 4.9 -1.6 4.8 99 0.0 N 28 46 15 25 - - 18.4
24/08:00pm 4.9 -1.2 4.8 99 0.0 NNE 26 43 14 23 - - 18.4
24/07:45pm 4.9 -1.6 4.8 99 0.0 NNE 28 54 15 29 - - 17.2
24/07:30pm 5.0 -1.5 4.9 99 0.0 NNE 28 43 15 23 - - 16.2
24/07:00pm 5.0 -1.5 4.9 99 0.0 NNE 28 54 15 29 - - 14.4
24/06:30pm 4.9 -1.6 4.8 99 0.0 NNE 28 48 15 26 - - 14.0
24/06:20pm 4.9 -1.6 4.8 99 0.0 N 28 46 15 25 - - 13.2
24/06:00pm 4.8 -1.7 4.7 99 0.0 N 28 46 15 25 - - 13.0
24/05:42pm 4.7 -2.8 4.6 99 0.0 N 33 54 18 29 - - 13.0
24/05:30pm 4.6 -1.6 4.5 99 0.0 NNE 26 43 14 23 - - 9.6
24/05:00pm 4.5 -2.8 4.4 99 0.0 NNE 32 50 17 27 - - 5.0
24/04:47pm 4.4 -2.6 4.3 99 0.0 NNE 30 48 16 26 - - 3.8
24/04:30pm 4.4 -1.8 4.3 99 0.0 NNE 26 35 14 19 - - 2.6
24/04:00pm 4.3 -3.2 4.2 99 0.0 NNE 33 48 18 26 - - 2.6
24/03:49pm 4.2 -2.8 4.1 99 0.0 NNE 30 48 16 26 - - 2.6
24/03:30pm 4.2 -2.8 4.1 99 0.0 NNE 30 43 16 23 - - 2.4
24/03:05pm 4.3 -4.0 4.2 99 0.0 NNE 37 57 20 31 - - 2.0
24/03:00pm 4.2 -4.5 4.1 99 0.0 NNE 39 56 21 30 - - 2.0
24/02:40pm 4.2 -3.7 4.1 99 0.0 NNE 35 56 19 30 - - 2.0
24/02:30pm 4.2 -3.7 4.1 99 0.0 NNE 35 52 19 28 - - 2.0
24/02:10pm 4.1 -5.4 4.0 99 0.0 NNE 43 61 23 33 - - 2.0
24/02:00pm 4.0 -5.5 3.9 99 0.0 NNE 43 57 23 31 - - 2.0
24/01:39pm 3.9 -4.5 3.8 99 0.0 NNE 37 57 20 31 - - 2.0
24/01:30pm 3.9 -5.6 3.8 99 0.0 NNE 43 57 23 31 - - 2.0
24/01:10pm 3.8 -5.9 3.7 99 0.0 NNE 44 69 24 37 - - 2.0
24/01:00pm 3.7 -6.8 3.6 99 0.0 NNE 48 65 26 35 - - 2.0
24/12:30pm 3.8 -6.3 3.7 99 0.0 NNE 46 67 25 36 - - 2.0
24/12:22pm 3.7 -6.1 3.6 99 0.0 NNE 44 67 24 36 - - 2.0
24/12:00pm 3.6 -6.9 3.5 99 0.0 NNE 48 63 26 34 - - 2.0
24/11:36am 3.7 -6.1 3.6 99 0.0 NNE 44 65 24 35 - - 2.0
24/11:30am 3.5 -6.3 3.4 99 0.0 NNE 44 61 24 33 - - 2.0
24/11:00am 3.3 -5.6 3.2 99 0.0 NNE 39 59 21 32 - - 1.8
24/10:30am 3.3 -6.9 3.2 99 0.0 NNE 46 76 25 41 - - 1.6
24/10:26am 3.3 -8.8 3.2 99 0.0 NNE 56 76 30 41 - - 1.6
24/10:25am 3.3 -9.4 3.2 99 0.0 NNE 59 76 32 41 - - 1.6
24/10:17am 3.3 -5.6 3.2 99 0.0 NNE 39 59 21 32 - - 1.6
24/10:00am 3.3 -6.0 3.2 99 0.0 NNE 41 54 22 29 - - 1.6
24/09:40am 3.0 -4.6 2.9 99 0.0 NNE 32 50 17 27 - - 1.2
24/09:30am 3.1 -5.8 3.0 99 0.0 NNE 39 50 21 27 - - 1.2
24/09:00am 3.0 -6.3 2.9 99 0.0 NNE 41 54 22 29 - - 7.8
24/08:31am 3.0 -5.9 2.9 99 0.0 NNE 39 57 21 31 - - 6.2
24/08:30am 3.0 -6.3 2.9 99 0.0 NNE 41 57 22 31 - - 6.2
24/08:09am 2.8 -6.5 2.7 99 0.0 NNE 41 61 22 33 - - 5.2
24/08:00am 2.8 -6.9 2.7 99 0.0 NNE 43 59 23 32 - - 4.8
24/07:32am 2.9 -5.3 2.8 99 0.0 NNE 35 54 19 29 - - 3.6
24/07:30am 2.8 -5.8 2.7 99 0.0 NNE 37 54 20 29 - - 3.6
24/07:00am 2.9 -4.9 2.8 99 0.0 NNE 33 54 18 29 - - 2.4
24/06:38am 3.0 -5.5 2.9 99 0.0 NNE 37 59 20 32 - - 1.8
24/06:30am 3.0 -5.9 2.9 99 0.0 NNE 39 57 21 31 - - 1.6
24/06:00am 2.9 -6.0 2.8 99 0.0 NNE 39 59 21 32 - - 1.4
24/05:33am 2.9 -6.8 2.8 99 0.0 NNE 43 63 23 34 - - 1.0
24/05:30am 2.9 -7.4 2.8 99 0.0 NNE 46 63 25 34 - - 1.0
24/05:00am 2.8 -6.9 2.7 99 0.0 NNE 43 54 23 29 - - 0.8
24/04:30am 2.9 -3.6 2.8 99 0.0 N 26 39 14 21 - - 0.4
24/04:00am 2.7 -6.7 2.6 99 0.0 NNE 41 63 22 34 - - 0.2
24/03:32am 2.7 -7.2 2.6 99 0.0 NNE 44 65 24 35 - - 0.0
24/03:30am 2.8 -7.5 2.7 99 0.0 NNE 46 65 25 35 - - 0.0
24/03:11am 2.5 -6.9 2.4 99 0.0 NNE 41 59 22 32 - - 0.0
24/03:00am 2.5 -6.5 2.4 99 0.0 NNE 39 54 21 29 - - 0.0
24/02:30am 2.6 -6.0 2.5 99 0.0 NNE 37 56 20 30 - - 0.0
24/02:00am 2.6 -6.4 2.5 99 0.0 NNE 39 59 21 32 - - 0.0
24/01:30am 2.5 -5.8 2.2 98 0.1 NNE 35 63 19 34 - - 0.0
24/01:05am 2.6 -6.4 2.3 98 0.1 NNE 39 63 21 34 - - 0.0
24/01:00am 2.5 -5.8 2.2 98 0.1 N 35 52 19 28 - - 0.0
24/12:44am 2.8 -5.5 2.4 97 0.2 N 35 59 19 32 - - 0.0
24/12:30am 2.6 -5.3 2.2 97 0.2 N 33 46 18 25 - - 0.0
24/12:00am 2.6 -4.8 1.9 95 0.3 NNE 30 44 16 24 - - 0.0
 
Date/Time
EST
Temp
°C
App
Temp
°C
Dew
Point
Rel
Hum
%
Delta-T
°C
Wind Press
QNH
hPa
Press
MSL
hPa
Rain
since 9 am
mm
Dir
 
Spd
km/h
Gust
km/h
Spd
kts
Gust
kts
23/11:30pm 2.8 -4.3 1.6 92 0.5 N 28 41 15 22 - - 0.0
23/11:00pm 2.6 -4.1 1.3 91 0.5 N 26 39 14 21 - - 0.0
23/10:30pm 2.2 -4.2 0.7 90 0.6 N 24 32 13 17 - - 0.0
23/10:00pm 2.0 -4.8 0.7 91 0.5 N 26 35 14 19 - - 0.0
23/09:30pm 1.7 -4.6 -0.7 84 0.9 N 22 30 12 16 - - 0.0
23/09:00pm 2.1 -5.3 -0.5 83 1.0 N 28 46 15 25 - - 0.0
23/08:55pm 2.7 -4.5 0.9 88 0.7 N 28 46 15 25 - - 0.0
23/08:30pm 0.9 -4.9 0.2 95 0.3 N 20 24 11 13 - - 0.0
23/08:00pm 1.8 -5.5 -3.1 70 1.8 N 26 33 14 18 - - 0.0
23/07:30pm 0.9 -5.7 -0.2 92 0.4 N 24 37 13 20 - - 0.0
23/07:00pm 1.8 -5.4 -5.3 59 2.6 N 24 30 13 16 - - 0.0
23/06:30pm 3.2 -5.5 -14.4 26 5.1 N 28 37 15 20 - - 0.0
23/06:00pm 3.0 -4.4 -12.8 30 4.8 N 22 35 12 19 - - 0.0
23/05:30pm 3.0 -5.2 -12.8 30 4.8 N 26 39 14 21 - - 0.0
23/05:00pm 3.3 -5.0 -14.3 26 5.1 N 26 39 14 21 - - 0.0
23/04:30pm 3.8 -5.3 -16.5 21 5.7 N 30 39 16 21 - - 0.0
23/04:00pm 4.6 -4.1 -15.2 22 5.8 N 28 37 15 20 - - 0.0
23/03:30pm 4.3 -5.1 -14.0 25 5.5 N 32 41 17 22 - - 0.0
23/03:00pm 5.0 -3.7 -14.4 23 5.9 N 28 37 15 20 - - 0.0
23/02:30pm 3.9 -3.8 -10.9 33 4.8 N 24 33 13 18 - - 0.0
23/02:00pm 4.4 -3.7 -11.2 31 5.1 N 26 33 14 18 - - 0.0
23/01:30pm 5.1 -3.3 -16.6 19 6.2 N 26 33 14 18 - - 0.0
23/01:00pm 5.7 -1.7 -12.3 26 5.5 N 22 30 12 16 - - 0.0
23/12:30pm 6.2 -1.3 -14.5 21 6.0 N 22 28 12 15 - - 0.0
23/12:00pm 5.7 -1.5 -16.1 19 6.4 N 20 28 11 15 - - 0.0
23/11:30am 6.0 -1.7 -18.6 15 6.8 N 22 30 12 16 - - 0.0
23/11:00am 5.9 -1.5 -20.4 13 7.0 N 20 26 11 14 - - 0.0
23/10:30am 5.7 -1.8 -22.4 11 7.1 N 20 28 11 15 - - 0.0
23/10:00am 5.4 -2.8 -22.7 11 7.0 N 24 28 13 15 - - 0.0
23/09:30am 5.7 -2.1 -22.4 11 7.1 N 22 26 12 14 - - 0.0
23/09:00am 5.4 -1.7 -18.4 16 6.6 N 19 26 10 14 - - 0.0
23/08:30am 5.1 -2.2 -17.9 17 6.4 N 20 26 11 14 - - 0.0
23/08:00am 4.9 -2.4 -17.4 18 6.2 N 20 28 11 15 - - 0.0
23/07:30am 4.9 -2.6 -22.1 12 6.7 N 20 26 11 14 - - 0.0
23/07:00am 5.0 -2.5 -24.0 10 6.9 N 20 26 11 14 - - 0.0
23/06:30am 5.5 -2.1 -26.1 8 7.3 N 20 26 11 14 - - 0.0
23/06:00am 5.0 -2.5 -25.2 9 7.0 N 20 26 11 14 - - 0.0
23/05:30am 4.8 -3.1 -23.1 11 6.8 N 22 28 12 15 - - 0.0
23/05:00am 4.8 -3.1 -24.2 10 6.8 N 22 26 12 14 - - 0.0
23/04:30am 4.0 -4.2 -21.9 13 6.3 N 24 24 13 13 - - 0.0
23/04:00am 3.6 -3.8 -21.4 14 6.1 N 20 22 11 12 - - 0.0
23/03:30am 2.7 -4.7 -19.9 17 5.6 N 20 20 11 11 - - 0.0
23/03:00am 4.0 -3.5 -22.8 12 6.4 N 20 20 11 11 - - 0.0
23/02:30am 4.2 -2.7 -23.6 11 6.6 N 17 20 9 11 - - 0.0
23/02:00am 3.7 -3.2 -22.1 13 6.2 N 17 19 9 10 - - 0.0
23/01:30am 3.4 -3.0 -20.0 16 5.9 N 15 15 8 8 - - 0.0
23/01:00am 4.4 -1.0 -23.4 11 6.6 NNW 9 13 5 7 - - 0.0
23/12:30am 4.3 -1.1 -23.5 11 6.6 N 9 11 5 6 - - 0.0
23/12:00am 4.5 -0.9 -23.4 11 6.7 NNW 9 11 5 6 - - 0.0
 
Date/Time
EST
Temp
°C
App
Temp
°C
Dew
Point
Rel
Hum
%
Delta-T
°C
Wind Press
QNH
hPa
Press
MSL
hPa
Rain
since 9 am
mm
Dir
 
Spd
km/h
Gust
km/h
Spd
kts
Gust
kts
22/11:30pm 4.3 -2.2 -21.6 13 6.4 N 15 15 8 8 - - 0.0
22/11:00pm 4.7 -1.8 -22.2 12 6.6 N 15 19 8 10 - - 0.0
22/10:30pm 4.3 -2.1 -17.9 18 6.0 N 15 17 8 9 - - 0.0
22/10:00pm 3.7 -2.6 -10.0 36 4.5 N 17 20 9 11 - - 0.0
22/09:30pm 4.3 -1.6 -9.4 36 4.7 N 15 17 8 9 - - 0.0
22/09:00pm 3.7 -2.8 -13.1 28 5.1 NNE 17 19 9 10 - - 0.0
22/08:30pm 4.1 -2.0 -12.3 29 5.1 N 15 19 8 10 - - 0.0
22/08:00pm 4.6 -0.5 -9.2 36 4.5 N 11 15 6 8 - - 0.0
22/07:30pm 3.6 -0.1 -4.6 55 3.0 NNW 6 7 3 4 - - 0.0
22/07:00pm 3.3 0.1 -0.3 77 1.4 NW 6 7 3 4 - - 0.0
22/06:30pm 3.1 0.0 0.0 80 1.2 W 6 9 3 5 - - 0.0
22/06:00pm 2.8 -1.0 1.6 92 0.5 W 11 11 6 6 - - 0.0
22/05:30pm 3.5 0.1 1.9 89 0.7 W 9 11 5 6 - - 0.0
22/05:00pm 4.6 0.9 2.1 84 1.1 WSW 11 15 6 8 - - 0.0
22/04:30pm 5.4 1.7 2.2 80 1.4 WSW 11 15 6 8 - - 0.0
22/04:00pm 6.3 3.3 2.0 74 1.9 W 7 9 4 5 - - 0.0
22/03:30pm 6.3 3.3 2.0 74 1.9 W 7 13 4 7 - - 0.0
22/03:00pm 6.8 4.0 2.3 73 2.0 W 6 9 3 5 - - 0.0
22/02:30pm 7.7 5.4 3.0 72 2.1 NW 4 7 2 4 - - 0.0
22/02:00pm 8.6 6.5 3.8 72 2.2 ESE 4 17 2 9 - - 0.0
22/01:30pm 7.0 3.9 0.2 62 2.9 W 6 7 3 4 - - 0.0
22/01:00pm 7.5 4.7 2.2 69 2.4 N 6 13 3 7 - - 0.0
22/12:30pm 8.4 5.9 4.0 74 2.1 NE 6 9 3 5 - - 0.0
22/12:00pm 8.4 5.9 3.8 73 2.1 NE 6 9 3 5 - - 0.0
22/11:30am 7.5 5.1 2.4 70 2.3 NNE 4 7 2 4 - - 0.0

Other Formats:

Comma delimited format used in spreadsheet applications
http://www.bom.gov.au/fwo/IDV60801/IDV60801.94833.axf

JavaScript Object Notation format (JSON) in row-major order
http://www.bom.gov.au/fwo/IDV60801/IDV60801.94833.json